Flag for United Kingdom Weather past 2 weeks in Glasgow, Scotland, United Kingdom

Now
57 °F

Scattered clouds.


Feels Like: 55 °F
Forecast: 47 / 58 °F
Wind: 9 mph from Northwest

Location: Glasgow Airport

Current Time: Aug 20, 2014 at 12:01:10 PM

Latest Report: Aug 20, 2014 at 11:20 AM


Visibility: N/A

Pressure: 30.01 "Hg

Humidity: 59%

Dew point: 43 °F

Location of GlasgowLocation

Historic Weather in Glasgow — Graph

°F

Glasgow temperature yesterday

Maximum temperature yesterday: 63 °F (at 2:50 PM)
Minimum temperature yesterday: 39 °F (at 5:20 AM)
Average temperature yesterday: 52 °F

Past Weeks' High & Low Weather Summary

 TemperatureHumidityPressure
High70 °F (Aug 5, 12:50 PM)100% (Aug 5, 9:50 PM)30.09 "Hg (Aug 5, 9:50 PM)
Low39 °F (Aug 19, 5:20 AM)49% (Aug 19, 2:50 PM)29.30 "Hg (Aug 10, 5:20 PM)
Average57 °F82%29.71 "Hg
* Reported Aug 5 10:20 AM — Aug 20 10:50 AM, Glasgow, Weather by CustomWeather, © 2014

Note: Actual official high and low records may vary slightly from our data, if they occured in-between our weather recording intervals... More about our weather records

Advertising

Glasgow weather history for previous 24 hours

 ConditionsComfort  
Time TempWeatherWind HumidityBarometerVisibility
10:50 AM
Aug 20
57 °FScattered clouds.10 mph63%30.01 "HgN/A
10:20 AM55 °FPassing clouds.9 mph67%30.04 "HgN/A
9:50 AM55 °FSunny.13 mph67%30.01 "Hg10 mi
9:20 AM54 °FSunny.10 mph77%30.01 "Hg10 mi
8:50 AM50 °FPassing clouds.5 mph88%30.01 "HgN/A
8:20 AM48 °FSunny.5 mph87%30.01 "Hg10 mi
7:50 AM48 °FSunny.6 mph87%30.01 "Hg10 mi
7:20 AM46 °FSunny.5 mph87%30.01 "Hg10 mi
6:50 AM41 °FClear.6 mph93%30.01 "Hg10 mi
6:20 AM41 °FClear.5 mph93%30.01 "Hg10 mi
5:50 AM39 °FClear.5 mph100%30.01 "Hg10 mi
5:20 AM41 °FClear.5 mph93%30.01 "Hg10 mi
4:50 AM43 °FClear.3 mph93%30.01 "Hg10 mi
4:20 AM43 °FClear.3 mph93%30.01 "Hg10 mi
3:50 AM43 °FClear.5 mph100%30.01 "Hg10 mi
3:20 AM45 °FClear.5 mph93%30.01 "Hg10 mi
2:50 AM43 °FClear.5 mph100%30.01 "Hg10 mi
2:20 AM43 °FClear.3 mph93%30.01 "Hg10 mi
1:50 AM41 °FClear.3 mph93%30.01 "Hg10 mi
1:20 AM43 °FClear.5 mph93%30.01 "Hg10 mi
12:50 AM43 °FClear.5 mph93%30.01 "Hg10 mi
12:20 AM43 °FClear.7 mph93%30.01 "Hg10 mi
11:50 PM
Aug 19
43 °FQuite cool.7 mph93%30.01 "HgN/A
11:20 PM45 °FClear.5 mph93%30.01 "Hg10 mi
10:50 PM46 °FClear.3 mph93%29.98 "Hg10 mi
10:20 PM46 °FClear.5 mph87%29.98 "Hg10 mi
9:50 PM45 °FClear.6 mph93%29.98 "Hg10 mi
9:20 PM48 °FSunny.6 mph82%29.98 "Hg10 mi
8:50 PM54 °FSunny.8 mph72%29.95 "Hg10 mi
8:20 PM55 °FScattered clouds.9 mph67%29.95 "HgN/A
7:50 PM55 °FSunny.10 mph63%29.95 "Hg10 mi
7:20 PM57 °FSunny.12 mph59%29.95 "Hg10 mi
6:50 PM59 °FSunny.12 mph55%29.92 "Hg10 mi
6:20 PM59 °FSunny.13 mph55%29.92 "Hg10 mi
5:50 PM61 °FScattered clouds.14 mph52%29.92 "HgN/A
5:20 PM61 °FScattered showers. Scattered clouds.13 mph52%29.92 "HgN/A
4:50 PM61 °FLight rain. Passing clouds.12 mph55%29.92 "HgN/A
4:20 PM59 °FScattered showers. Scattered clouds.9 mph55%29.92 "HgN/A
3:50 PM61 °FScattered clouds.3 mph55%29.92 "HgN/A
3:20 PM61 °FScattered clouds.8 mph55%29.92 "HgN/A
2:50 PM63 °FScattered clouds.8 mph49%29.92 "HgN/A
2:20 PM59 °FScattered clouds.8 mph55%29.92 "HgN/A
1:50 PM61 °FPassing clouds.7 mph52%29.92 "HgN/A
1:20 PM59 °FPassing clouds.7 mph55%29.92 "HgN/A
12:50 PM57 °FBroken clouds.6 mph59%29.92 "HgN/A
12:20 PM59 °FPartly sunny.8 mph59%29.92 "HgN/A
Weather by CustomWeather, © 2014

See weather overviewHow to use our weather pages